Weather observations for the past three days for
Blytheville, Blytheville Municipal Airport
Imperial (Metric)
Date Time (cdt) Wind (mph) Vis. (mi.) Weather Sky Cond. Temperature (ºF) Relative Humidity Wind Chill (°F) Heat Index (°F) Pressure Precipitation (in)
Air Dwpt 6 hour altimeter (in) sea level (mb) 1 hr 3 hr 6 hr
Max. Min.
10 11:53 Calm 0.00 Fair CLR 3.2 0 0% 30.01 1016.8
10 10:53 Vrbl 3 0.00 Fair CLR 3.2 0 0% 30.02 1017.0
10 09:53 Vrbl 3 0.00 Fair CLR 3.2 0 0% 30 1016.6
10 08:53 Calm 0.00 Fair CLR 3.2 0 0% 30 1016.4
10 07:53 Calm 0.00 Fair CLR 1.4 0 0% 29.99 1016.2
10 06:53 Calm 0.00 Fair CLR 1.4 0 1.9 1.9 0% 29.98 1015.9
10 05:53 SW 5 0.00 Fair CLR 1.4 0 0% -7 29.94 1014.5
10 04:53 S 6 0.00 Fair CLR 1.4 0 0% -9 29.93 1014.0
10 03:53 S 3 0.00 Fair CLR 1.4 0 0% 29.91 1013.3
10 02:53 S 3 0.00 Fair CLR 1.4 0 0% 29.89 1012.9
10 01:53 SW 5 0.00 Fair CLR 1.4 0 0% -7 29.91 1013.4
10 00:53 SW 3 0.00 Fair CLR 1.4 0 3 1.9 0% 29.9 1013.1
09 23:53 S 6 0.00 Fair CLR 1.4 0 0% -9 29.89 1012.7
09 22:53 S 7 0.00 Fair CLR 1.4 0 0% -10 29.89 1012.7
09 21:53 S 7 0.00 Fair CLR 3.2 0 0% -8 29.88 1012.5
09 20:53 S 5 0.00 Fair CLR 3.2 0 0% -5 29.87 1012.0
09 19:53 S 6 0.00 Fair CLR 3.2 0 0% -7 29.84 1011.1
09 18:53 SE 6 0.00 Fair CLR 3.2 0 3 3 0% -7 29.83 1010.6
09 17:53 Calm 0.00 Fair CLR 3.2 0 0% 29.81 1010.2
09 16:53 S 3 0.00 Fair CLR 3.2 0 0% 29.82 1010.4
09 15:53 N 5 0.00 Fair CLR 3.2 0 0% -5 29.82 1010.4
09 14:53 NW 6 0.00 Fair CLR 3.2 0 0% -7 29.83 1010.7
09 13:53 Calm 0.00 Fair CLR 3.2 0 0% 29.85 1011.3
09 12:53 N 6 0.00 Fair CLR 3.2 0 3 1.9 0% -7 29.86 1011.6
09 11:53 NE 3 0.00 Fair CLR 3.2 0 0% 29.86 1011.8
09 10:53 Vrbl 5 0.00 Fair CLR 3.2 0 0% -5 29.85 1011.5
09 09:53 Calm 0.00 Fair CLR 3.2 0 0% 29.85 1011.5
09 08:53 NW 6 0.00 Fair CLR 1.4 0 0% -9 29.85 1011.4
09 07:53 W 6 0.00 Fair CLR 1.4 0 0% -9 29.83 1010.8
09 06:53 S 5 0.00 Fair CLR 1.4 0 3 1.9 0% -7 29.82 1010.3
09 05:53 W 3 0.00 Fair CLR 1.4 0 0% 29.8 1009.7
09 04:53 W 7 0.00 Fair CLR 1.4 0 0% -10 29.77 1008.8
09 03:53 SW 15 0.00 Fair CLR 1.4 0 0% -16 29.78 1009.0
09 02:53 SW 12 0.00 Fair CLR 1.4 0 0% -14 29.78 1009.1
09 01:53 SW 12 0.00 Fair CLR 1.4 0 0% -14 29.79 1009.3
09 00:53 SW 14 G 20 0.00 Fair CLR 1.4 0 3 1.9 0% -16 29.8 1009.8
08 23:53 S 9 0.00 A Few Clouds FEW110 1.4 0 0% -12 29.82 1010.4
08 22:53 SW 9 0.00 Fair CLR 1.4 0 0% -12 29.83 1010.8
08 21:53 S 8 0.00 Fair CLR 1.4 0 0% -11 29.81 1010.1
08 20:53 SW 8 0.00 Fair CLR 1.4 0 0% -11 29.82 1010.2
08 19:53 SW 7 0.00 Fair CLR 3.2 0 0% -8 29.81 1010.1
08 18:53 SW 12 0.00 Fair CLR 3.2 0 3 3 0% -12 29.82 1010.4
08 17:53 SW 12 0.00 Fair CLR 3.2 0 0% -12 29.83 1010.6
08 16:53 S 9 G 20 0.00 Fair CLR 3.2 0 0% -10 29.83 1010.8
08 15:53 SW 10 G 21 0.00 Fair CLR 3.2 0 0% -11 29.84 1011.1
08 14:53 S 7 0.00 Fair CLR 3.2 0 0% -8 29.86 1011.7
08 13:53 SW 8 G 17 0.00 Fair CLR 3.2 0 0% -9 29.9 1013.1
08 12:53 S 9 G 21 0.00 Fair CLR 3.2 0 3 1.9 0% -10 29.93 1014.1
08 11:53 S 12 G 20 0.00 Light Snow CLR 3.2 0 0% -12 29.96 1015.2
08 10:53 SW 10 0.00 Light Snow CLR 3.2 0 0% -11 29.99 1016.1
08 09:53 S 10 G 18 0.00 Fair CLR 1.4 0 0% -13 30.01 1016.9
08 08:53 S 8 0.00 Fair CLR 1.4 0 0% -11 30.02 1017.1
08 07:53 S 9 0.00 Fair CLR 1.4 0 0% -12 30.02 1017.2
08 06:53 S 8 0.00 Fair CLR 1.4 0 1.9 1.9 0% -11 30.01 1016.9
08 05:53 S 7 0.00 Fair CLR 1.4 0 0% -10 29.99 1016.0
08 04:53 Calm 0.00 Fair CLR 1.4 0 0% 29.99 1016.0
08 03:53 Calm 0.00 Fair CLR 1.4 0 0% 29.98 1016.0
08 02:53 Calm 0.00 Fair CLR 1.4 0 0% 29.99 1016.2
08 01:53 Calm 0.00 Fair CLR 1.4 0 0% 30.01 1016.7
08 00:53 S 5 0.00 Fair CLR 1.4 0 3 1.9 0% -7 30.01 1016.9
07 23:53 S 3 0.00 Fair CLR 1.4 0 0% 30.01 1016.8
07 22:53 S 6 0.00 Fair CLR 1.4 0 0% -9 30.01 1016.9
07 21:53 SE 5 0.00 Fair CLR 1.4 0 0% -7 30.01 1016.9
07 20:53 SE 6 0.00 Fair CLR 1.4 0 0% -9 29.99 1016.1
07 19:53 E 3 0.00 Fair CLR 3.2 0 0% 29.99 1016.2
07 18:53 NE 5 0.00 Fair CLR 3.2 0 3 1.9 0% -5 29.98 1015.7
07 16:53 NW 7 0.00 Fair CLR 3.2 0 0% -8 29.99 1016.1
07 15:53 NW 5 0.00 Fair CLR 3.2 0 0% -5 29.99 1016.2
07 14:53 NE 8 0.00 Fair CLR 3.2 0 0% -9 30.01 1016.7
07 13:53 N 8 0.00 Fair CLR 1.4 0 0% -11 30.02 0.0
07 12:53 N 7 0.00 Fair CLR 1.4 0 1.9 1.9 0% -10 30.04 0.0
Date Time (cdt) Wind (mph) Vis. (mi.) Weather Sky Cond. Air Dwpt Max. Min. Relative Humidity Wind Chill (°F) Heat Index (°F) altimeter (in) sea level (mb) 1 hr 3 hr 6 hr
6 hour
Temperature (ºF) Pressure Precipitation (in)